Watford City, ND

3:30 PM CST on December 09, 2019 (GMT -0600)
Watford City

Weather History for KS25 - October, 2019

Change the Weather History Date:

Friday, October 25, 2019

  Actual Average (KISN) Record (KISN)
Temperature  
Mean Temperature 47 °F -  
Max Temperature 66 °F 54 °F 78 °F (1955)
Min Temperature 28 °F 29 °F 4 °F (1957)
Degree Days  
Heating Degree Days 18    
Moisture  
Dew Point 33 °F    
Average Humidity 62    
Maximum Humidity 93    
Minimum Humidity 35    
Precipitation  
Precipitation 0.00 in - - ()
Sea Level Pressure  
Sea Level Pressure 29.81 in    
Wind  
Wind Speed 11 mph (SW)    
Max Wind Speed 23 mph    
Max Gust Speed 31 mph    
Visibility 10 miles    
Events      
Averages and records for this station are not official NWS values.
T = Trace of Precipitation, MM = Missing Value Source: NWS Daily Summary

Daily Weather History Graph

Daily Weather History Graph

Search for Another Location

Airport or City:

Astronomy

Oct. 25, 2019 Rise Set
Actual Time 8:26 AM CDT 6:46 PM CDT
Civil Twilight 7:54 AM CDT 7:18 PM CDT
Nautical Twilight 7:18 AM CDT 7:54 PM CDT
Astronomical Twilight 6:42 AM CDT 8:30 PM CDT
Moon 4:51 AM CDT (10/25) 6:06 PM CDT (10/25)
Length of Visible Light 11h 23m
Length of Day
10h 20m
Waning Crescent, 9% of the Moon is Illuminated
Oct 25
Waning Crescent
Oct 27
New
Nov 4
First Quarter
Nov 12
Full
Nov 19
Last Quarter

Hourly Weather History & Observations

Time (CDT) Temp. Windchill Dew Point Humidity Pressure Visibility Wind Dir Wind Speed Gust Speed Precip Events Conditions
12:15 AM 32.0 °F 25.6 °F 24.8 °F 75% 30.04 in 10.0 mi SW 6.9 mph - N/A   Clear
12:35 AM 32.0 °F 25.6 °F 26.6 °F 80% 30.03 in 10.0 mi SW 6.9 mph - N/A   Clear
12:55 AM 30.2 °F 22.6 °F 24.8 °F 80% 30.02 in 10.0 mi SW 8.1 mph - N/A   Clear
1:15 AM 30.2 °F 22.6 °F 24.8 °F 80% 30.02 in 10.0 mi SW 8.1 mph - N/A   Clear
1:35 AM 30.2 °F 23.4 °F 26.6 °F 86% 30.02 in 10.0 mi WSW 6.9 mph - N/A   Clear
1:55 AM 28.4 °F 20.4 °F 26.6 °F 93% 30.02 in 10.0 mi WSW 8.1 mph - N/A   Clear
2:15 AM 30.2 °F 23.4 °F 26.6 °F 86% 30.01 in 10.0 mi WSW 6.9 mph - N/A   Clear
2:35 AM 32.0 °F 24.2 °F 26.6 °F 80% 30.01 in 10.0 mi WSW 9.2 mph - N/A   Mostly Cloudy
2:55 AM 32.0 °F 23.6 °F 28.4 °F 87% 30.01 in 10.0 mi WSW 10.4 mph - N/A   Scattered Clouds
3:15 AM 32.0 °F 23.6 °F 28.4 °F 87% 30.00 in 10.0 mi WSW 10.4 mph - N/A   Clear
3:35 AM 32.0 °F 24.2 °F 28.4 °F 87% 30.00 in 10.0 mi SW 9.2 mph - N/A   Clear
3:55 AM 32.0 °F 24.2 °F 28.4 °F 87% 30.00 in 10.0 mi WSW 9.2 mph - N/A   Clear
4:15 AM 32.0 °F 24.2 °F 28.4 °F 87% 29.99 in 10.0 mi WSW 9.2 mph - N/A   Clear
4:35 AM 32.0 °F 24.2 °F 28.4 °F 87% 29.99 in 10.0 mi WSW 9.2 mph - N/A   Clear
4:55 AM 32.0 °F 24.2 °F 28.4 °F 87% 29.99 in 10.0 mi WSW 9.2 mph - N/A   Clear
5:15 AM 32.0 °F 24.8 °F 28.4 °F 87% 29.99 in 10.0 mi WSW 8.1 mph - N/A   Clear
5:35 AM 32.0 °F 24.8 °F 28.4 °F 87% 29.99 in 10.0 mi SW 8.1 mph - N/A   Clear
5:55 AM 33.8 °F 25.8 °F 28.4 °F 81% 29.99 in 10.0 mi SW 10.4 mph - N/A   Clear
6:15 AM 32.0 °F 24.2 °F 28.4 °F 87% 29.99 in 10.0 mi SW 9.2 mph - N/A   Clear
6:35 AM 32.0 °F 26.4 °F 28.4 °F 87% 29.98 in 10.0 mi SSW 5.8 mph - N/A   Clear
6:55 AM 32.0 °F 24.2 °F 30.2 °F 93% 29.98 in 10.0 mi SW 9.2 mph - N/A   Mostly Cloudy
7:15 AM 35.6 °F 27.1 °F 32.0 °F 87% 29.97 in 10.0 mi SW 12.7 mph - N/A   Overcast
7:35 AM 35.6 °F 27.5 °F 32.0 °F 87% 29.97 in 10.0 mi SW 11.5 mph - N/A   Scattered Clouds
7:55 AM 35.6 °F 29.2 °F 30.2 °F 81% 29.97 in 10.0 mi SW 8.1 mph - N/A   Clear
8:15 AM 37.4 °F 30.3 °F 32.0 °F 81% 29.97 in 10.0 mi SW 10.4 mph - N/A   Clear
8:35 AM 37.4 °F 31.4 °F 32.0 °F 81% 29.97 in 10.0 mi SW 8.1 mph 15.0 mph N/A   Clear
8:55 AM 37.4 °F 31.4 °F 32.0 °F 81% 29.96 in 10.0 mi SW 8.1 mph - N/A   Clear
9:15 AM 37.4 °F 33.8 °F 32.0 °F 81% 29.96 in 10.0 mi WSW 4.6 mph - N/A   Clear
9:55 AM 42.8 °F 35.8 °F 33.8 °F 70% 29.94 in 10.0 mi SW 13.8 mph 23.0 mph N/A   Clear
10:15 AM 44.6 °F 37.4 °F 33.8 °F 66% 29.94 in 10.0 mi SW 16.1 mph 21.9 mph N/A   Clear
10:35 AM 46.4 °F 39.8 °F 33.8 °F 62% 29.93 in 10.0 mi SW 16.1 mph 24.2 mph N/A   Clear
10:55 AM 48.2 °F - 33.8 °F 58% 29.92 in 10.0 mi SW 16.1 mph 21.9 mph N/A   Clear
1:35 PM 57.2 °F - 37.4 °F 48% 29.84 in 10.0 mi SW 18.4 mph - N/A   Clear
1:55 PM 60.8 °F - 37.4 °F 42% 29.82 in 10.0 mi SW 17.3 mph 25.3 mph N/A   Clear
2:15 PM 62.6 °F - 37.4 °F 39% 29.80 in 10.0 mi SW 17.3 mph 27.6 mph N/A   Clear
2:35 PM 62.6 °F - 37.4 °F 39% 29.79 in 10.0 mi SW 17.3 mph 26.5 mph N/A   Clear
2:55 PM 64.4 °F - 37.4 °F 37% 29.76 in 10.0 mi SW 23.0 mph 29.9 mph N/A   Clear
3:15 PM 64.4 °F - 37.4 °F 37% 29.74 in 10.0 mi SSW 20.7 mph 28.8 mph N/A   Clear
3:35 PM 66.2 °F - 37.4 °F 35% 29.73 in 10.0 mi SW 21.9 mph 27.6 mph N/A   Clear
3:55 PM 66.2 °F - 37.4 °F 35% 29.72 in 10.0 mi SW 19.6 mph 29.9 mph N/A   Clear
4:15 PM 66.2 °F - 37.4 °F 35% 29.70 in 10.0 mi SW 21.9 mph 31.1 mph N/A   Clear
4:35 PM 66.2 °F - 37.4 °F 35% 29.69 in 10.0 mi SW 19.6 mph 27.6 mph N/A   Clear
4:55 PM 64.4 °F - 37.4 °F 37% 29.68 in 10.0 mi SW 20.7 mph 27.6 mph N/A   Clear
5:15 PM 64.4 °F - 37.4 °F 37% 29.66 in 10.0 mi SW 16.1 mph 24.2 mph N/A   Clear
5:35 PM 64.4 °F - 37.4 °F 37% 29.66 in 10.0 mi SW 16.1 mph 23.0 mph N/A   Clear
5:55 PM 64.4 °F - 37.4 °F 37% 29.64 in 10.0 mi SSW 12.7 mph 20.7 mph N/A   Clear
6:15 PM 62.6 °F - 37.4 °F 39% 29.63 in 10.0 mi SSW 15.0 mph 23.0 mph N/A   Clear
6:35 PM 60.8 °F - 37.4 °F 42% 29.63 in 10.0 mi SSW 11.5 mph 17.3 mph N/A   Clear
6:55 PM 59.0 °F - 37.4 °F 45% 29.62 in 10.0 mi SSW 10.4 mph - N/A   Clear
7:15 PM 59.0 °F - 37.4 °F 45% 29.61 in 10.0 mi South 11.5 mph 18.4 mph N/A   Clear
7:35 PM 57.2 °F - 37.4 °F 48% 29.60 in 10.0 mi South 10.4 mph - N/A   Clear
7:55 PM 59.0 °F - 37.4 °F 45% 29.59 in 10.0 mi SSW 12.7 mph 20.7 mph N/A   Clear
8:15 PM 57.2 °F - 37.4 °F 48% 29.58 in 10.0 mi South 12.7 mph - N/A   Clear
8:35 PM 57.2 °F - 37.4 °F 48% 29.58 in 10.0 mi SSW 11.5 mph - N/A   Clear
8:55 PM 57.2 °F - 35.6 °F 44% 29.57 in 10.0 mi SSW 10.4 mph - N/A   Clear
9:15 PM 59.0 °F - 35.6 °F 42% 29.56 in 10.0 mi SSW 13.8 mph - N/A   Clear
9:35 PM 59.0 °F - 35.6 °F 42% 29.56 in 10.0 mi SSW 15.0 mph 21.9 mph N/A   Clear
9:55 PM 59.0 °F - 35.6 °F 42% 29.55 in 10.0 mi SSW 16.1 mph 21.9 mph N/A   Clear
10:15 PM 59.0 °F - 35.6 °F 42% 29.54 in 10.0 mi SW 13.8 mph 23.0 mph N/A   Clear
10:35 PM 57.2 °F - 35.6 °F 44% 29.54 in 10.0 mi SW 13.8 mph - N/A   Clear
10:55 PM 57.2 °F - 35.6 °F 44% 29.53 in 10.0 mi SW 13.8 mph - N/A   Clear
11:15 PM 57.2 °F - 35.6 °F 44% 29.53 in 10.0 mi SW 13.8 mph - N/A   Clear
11:35 PM 57.2 °F - 35.6 °F 44% 29.52 in 10.0 mi SW 13.8 mph - N/A   Clear
11:55 PM 55.4 °F - 35.6 °F 47% 29.52 in 10.0 mi SW 11.5 mph - N/A   Clear